Location: *
(46.0770°N, 1.6444°E)
Time: 00:34:54
(UTC+00:00)

SPOT 5 - Pass Details

Date: 16 September 2019
Orbit: 624 x 814 km, 98.3° (Epoch: 15 October)

Event Time Altitude Azimuth Distance (km) Brightness Sun altitude
Exits shadow 21:11:43 32° 10° (N) 1,208 4.2 -30.4°
Drops below altitude 10° 21:14:32 10° 354° (N) 2,235 6.0 -30.8°
Sets 21:16:55 0° 351° (N) 3,193 6.9 -31.1°
